Torna al catalogo

CZ-6A DEB

AttivoPO
NORAD 60755·DEBRIS·🇨🇳 China

Lanciato Aug 6, 2024 da Taiyuan Satellite Launch Center

Loading…

Prossimi Passaggi (prossime 24 ore)

TLE

AggiornatoSource: Space-Track

Epoca: Sep 14, 2026, 09:49 UTC

1 60755U 24140EE  26257.40943061  .00000801  00000-0  46295-3 0  9991
2 60755  88.7780 247.7062 0128124 305.1723  53.7510 14.04121546105892

Traccia CZ-6A DEB in tempo reale con AllMySat

Download on the App Store